RH
74 48 34 33 29 24 19 19 20 16 13 13 13 12 14 16 16 13 16 16 18 18 21 20 21 20 24 29 31 41 50 41 31 34 30 30 31 29 30 36 35 37 50 50 52
32 23 23 21 18 16 16 17 16 16 14 12 12 15 16 17 23 18 16 17 20 20 22 21 20 20 28 27 29 45 49 38 30 30 30 31 31 31 34 36 36 44 57 60 52
25 22 20 20 18 16 14 12 12 13 12 18 19 17 17 23 19 16 17 18 21 22 22 22 21 21 23 21 24 36 40 34 29 29 28 28 29 30 38 39 38 44 58 65 61
29 24 21 20 18 16 14 13 14 16 20 17 18 18 16 24 23 16 16 17 19 20 22 22 20 23 26 25 23 27 27 26 27 31 28 26 28 30 38 32 26 36 55 64 65
40 32 22 20 18 17 17 18 18 18 18 16 16 17 24 20 18 17 17 16 17 18 22 22 20 23 25 24 24 27 26 26 27 33 32 31 34 32 36 35 32 39 61 64 62
43 40 30 20 20 19 18 18 17 17 17 16 17 18 26 24 17 18 18 18 18 19 21 23 23 24 23 24 26 27 28 29 30 33 35 37 38 38 33 36 40 52 63 64 62
44 41 38 34 20 18 17 17 16 15 18 21 19 18 22 21 18 19 18 20 19 18 20 22 24 25 26 27 25 23 25 27 26 33 35 34 37 48 37 40 45 56 57 62 62
42 38 36 34 34 21 18 17 15 15 19 20 19 21 26 19 18 19 18 20 21 20 18 18 20 24 26 24 31 26 29 29 27 36 34 30 36 26 32 43 47 54 58 61 66
38 38 35 40 36 35 32 30 16 15 17 21 21 22 22 18 19 20 20 20 19 22 22 18 23 31 31 34 35 37 33 30 30 36 35 34 37 32 34 44 46 54 58 63 66
43 38 35 37 32 26 25 24 18 17 21 21 19 23 23 20 20 20 21 20 21 22 29 26 42 39 42 34 29 26 29 30 34 28 37 40 46 34 35 42 45 51 58 64 68
44 40 37 34 30 24 27 27 32 34 30 24 26 25 24 22 22 25 21 21 23 28 33 34 34 35 35 32 26 27 30 34 34 30 33 42 42 34 29 40 49 58 62 66 64
40 40 37 34 30 22 27 43 46 47 32 30 25 24 21 23 26 26 23 24 26 31 32 37 38 31 29 28 28 31 34 40 37 33 36 42 44 33 34 41 44 54 63 62 66
36 37 36 35 31 30 33 48 50 54 36 33 26 27 25 24 26 30 23 25 26 30 36 38 29 29 26 29 32 35 38 38 36 42 41 49 53 41 30 31 32 43 51 57 64
37 35 35 36 32 44 41 43 47 53 45 32 30 29 27 28 30 28 24 24 29 29 32 39 32 30 30 32 34 36 36 34 38 44 52 43 64 50 36 37 33 34 51 56 67
37 37 36 37 36 32 39 44 54 51 53 32 35 30 30 32 32 32 26 26 28 32 31 34 36 34 36 35 34 36 33 35 38 49 59 59 68 57 37 32 32 33 38 48 60
39 38 36 40 46 46 49 50 59 50 51 35 36 37 38 38 34 36 31 28 30 32 35 39 32 34 35 33 33 31 38 55 72 70 82 61 66 58 40 32 31 29 34 38 58
42 39 44 50 48 50 56 63 59 65 30 37 38 40 38 39 38 41 39 41 42 38 44 43 44 36 30 34 33 39 52 70 73 85 72 61 66 54 40 43 37 31 36 48 66
43 38 47 60 56 50 62 51 50 37 51 36 38 39 42 41 40 40 42 47 45 40 53 53 59 46 37 37 43 52 52 68 68 71 64 56 66 53 39 43 50 56 69 79 86
46 43 50 63 56 51 57 62 46 45 38 39 40 46 45 44 40 40 47 47 42 48 47 60 56 37 35 32 38 47 58 47 56 66 83 67 60 46 48 65 66 70 73 73 69
56 65 54 65 53 55 62 64 49 49 38 38 44 44 49 46 45 45 44 41 40 46 37 42 56 43 36 32 37 46 44 60 73 80 96 83 76 71 51 68 69 74 71 67 65
65 82 56 55 62 66 59 68 53 48 37 44 48 47 50 45 50 49 44 39 39 41 43 43 51 50 42 48 52 51 54 52 61 93 96 95 78 69 63 75 70 66 63 69 79
89 79 55 58 71 84 72 60 50 43 38 42 43 51 52 50 52 56 51 40 37 40 44 42 59 68 61 49 45 49 52 52 61 89 96 96 74 70 77 78 63 61 68 82 87
93 98 69 60 87 72 67 60 50 48 48 46 50 50 48 53 53 57 50 40 40 39 44 46 60 75 66 61 64 56 55 51 74 88 96 96 77 84 84 81 71 78 84 88 91
99 98 83 85 80 63 66 71 68 55 54 49 49 48 54 57 57 57 58 45 44 40 51 45 60 61 76 60 68 86 80 60 72 99 86 83 69 97 87 84 90 92 92 93 96
99 95 83 92 79 80 75 77 76 75 64 55 57 54 57 67 65 65 60 57 54 48 54 51 69 70 60 61 61 60 66 63 87 92 97 72 74 64 82 88 92 95 95 95 96
98 99 91 96 87 87 87 86 80 74 72 72 70 66 62 66 62 66 64 64 68 60 54 70 99 94 96 83 88 93 83 79 79 74 82 89 84 87 93 90 93 94 95 96 95
87 88 96 88 89 89 81 76 80 80 72 65 64 68 79 64 55 63 61 58 62 70 66 91 99 100 96 81 81 97 85 78 75 72 74 88 76 89 93 91 94 96 95 95 95
Wind_Speed
5 2 0 2 3 4 3 3 4 5 5 6 8 8 9 7 1 4 3 5 7 7 5 7 1 2 1 2 2 3 4 2 3 5 2 2 3 1 1 4 3 4 5 3 18
5 3 1 1 2 2 2 3 3 4 3 4 6 9 8 5 2 3 6 7 6 5 2 4 1 4 2 1 2 4 3 6 3 3 3 3 4 4 2 4 4 3 1 7 29
5 3 2 1 1 1 1 2 2 2 1 3 6 6 4 2 1 2 8 6 5 5 2 2 2 0 2 2 2 2 3 3 3 3 3 2 2 4 5 6 7 9 6 9 12
6 3 2 1 1 1 1 2 2 1 1 3 6 7 2 0 2 2 8 7 4 3 1 1 1 1 2 1 1 1 1 3 2 3 3 3 1 4 8 8 3 10 12 11 10
8 6 3 2 2 2 2 2 2 2 3 5 8 8 1 1 3 4 6 5 2 1 3 1 2 1 2 2 1 1 2 2 2 3 4 1 6 6 10 10 6 5 11 14 11
9 7 5 3 4 3 4 4 4 4 5 7 8 5 0 1 1 4 5 4 5 4 3 3 2 2 3 1 2 1 2 4 3 3 3 3 3 1 6 2 8 8 11 11 11
13 10 6 5 5 5 6 6 6 4 6 7 6 3 1 3 0 3 3 2 5 4 2 2 1 1 2 1 1 1 5 5 2 2 3 2 4 8 5 2 7 9 8 9 10
17 14 10 9 7 7 7 7 7 5 4 5 4 1 3 2 2 2 3 1 1 2 2 2 2 4 2 1 5 3 4 4 2 4 1 2 9 6 7 6 9 9 8 8 9
23 18 14 8 4 5 7 8 8 7 7 6 2 1 4 1 2 2 2 1 3 0 1 1 3 3 3 3 4 6 2 2 7 6 1 2 9 6 3 7 10 9 9 9 7
28 21 14 8 6 8 7 6 4 5 2 1 1 3 1 2 1 2 1 1 2 1 2 3 5 3 3 3 3 3 3 4 6 2 2 4 18 21 10 9 13 10 10 9 10
30 26 18 9 7 7 3 1 4 3 0 4 2 2 2 1 2 2 1 1 1 4 2 2 3 5 6 5 3 2 3 5 5 4 3 6 11 20 10 9 10 9 9 10 13
29 28 21 9 5 8 4 5 2 1 5 2 3 3 2 0 2 2 1 2 1 2 2 4 4 4 4 4 3 3 3 6 6 2 1 7 12 22 14 7 7 9 9 10 6
29 28 22 10 4 6 11 5 2 0 1 3 3 2 2 3 2 3 2 2 3 2 5 5 2 6 4 3 3 4 5 4 6 5 3 6 8 7 4 3 3 4 6 7 11
29 27 22 10 1 4 4 2 2 0 4 3 2 2 2 2 3 1 1 1 1 4 3 5 0 4 3 4 7 4 5 2 1 3 3 4 6 7 5 8 5 6 4 6 7
29 27 20 10 4 3 2 3 3 1 4 2 3 1 2 3 1 1 1 3 3 3 3 5 5 4 4 6 7 6 2 1 2 3 3 2 1 8 3 7 6 7 6 4 7
30 27 17 7 3 3 4 3 1 5 5 2 2 2 1 2 2 1 1 2 1 0 1 6 1 5 6 2 4 3 2 4 4 3 1 4 5 5 4 1 6 2 4 3 6
30 26 12 7 2 5 3 2 5 3 1 3 4 3 2 3 3 5 3 3 5 1 3 2 4 2 2 2 2 3 4 4 4 2 6 5 3 9 3 6 5 2 2 6 7
30 24 11 4 3 5 0 5 3 4 6 0 2 1 4 4 4 3 1 3 5 2 2 4 6 8 5 5 7 5 6 5 6 4 5 0 7 5 1 4 6 7 9 11 11
30 20 4 1 3 4 4 2 7 7 2 3 1 2 3 2 3 3 6 5 6 9 8 5 6 2 3 2 3 3 4 2 1 1 2 4 7 4 4 6 8 9 11 11 10
24 11 5 1 5 3 4 6 5 4 3 2 7 7 7 5 4 4 5 4 4 8 1 3 5 3 2 2 2 4 3 3 2 4 6 5 6 6 6 3 4 6 8 8 9
8 4 2 3 4 4 3 7 5 5 4 7 6 5 8 6 7 5 5 4 5 4 6 5 4 2 4 7 9 2 3 3 2 4 4 4 6 4 7 6 7 6 7 7 7
6 3 4 4 3 0 3 5 3 3 2 4 3 7 7 7 6 6 8 8 5 6 6 4 4 5 11 3 2 4 8 9 6 5 4 2 11 3 6 7 9 8 9 8 8
5 3 3 1 3 3 5 5 4 3 5 4 5 7 4 6 3 7 5 2 6 6 6 5 2 4 8 1 0 4 5 5 1 3 14 6 8 5 5 6 5 8 7 8 9
2 3 4 2 1 3 3 6 5 2 5 5 5 3 3 4 6 5 4 4 6 6 8 7 7 12 15 10 3 4 6 7 7 5 6 17 17 7 10 9 8 8 9 8 8
2 4 2 4 4 3 1 3 3 4 4 2 2 5 7 6 4 8 6 4 4 6 5 6 15 8 18 13 6 14 16 14 15 17 12 23 18 6 11 11 11 10 9 9 8
3 3 4 4 5 4 4 6 13 12 6 8 10 10 10 14 13 12 6 4 6 3 6 3 4 4 18 14 16 21 29 21 22 24 24 25 30 8 11 11 11 10 9 8 7
9 7 3 4 4 6 8 10 5 9 9 17 17 13 13 18 16 13 11 13 9 10 7 6 4 4 13 11 13 15 24 24 15 14 14 18 14 10 11 11 8 8 8 7 6
Wind_Direction
9 12 96 216 241 246 246 240 240 242 249 262 285 304 320 335 91 34 28 336 330 334 324 322 94 34 31 75 67 120 64 166 209 161 237 175 178 229 79 129 211 171 156 273 169
35 42 20 295 271 262 248 239 234 235 253 282 302 309 312 324 246 30 356 352 352 347 322 19 37 6 31 62 26 85 107 211 189 192 210 207 187 197 158 206 236 212 61 151 161
38 27 4 328 289 243 235 220 206 209 256 323 334 330 324 334 10 278 350 350 343 328 304 318 313 187 68 38 18 143 169 202 235 196 183 220 255 201 192 234 211 208 176 164 166
30 18 346 298 275 235 207 186 190 216 230 338 347 353 332 159 240 324 344 347 335 330 255 242 19 87 93 73 20 75 231 193 210 204 164 216 262 255 200 228 219 214 174 164 177
19 7 343 321 273 244 224 215 253 266 264 329 344 346 201 36 261 335 343 346 310 334 60 87 84 125 152 171 50 145 239 219 214 194 248 300 247 241 257 240 229 152 156 183 187
18 8 355 322 281 259 248 250 264 274 294 315 328 331 209 253 309 351 348 357 26 57 49 42 152 168 116 164 147 205 268 265 250 222 230 236 255 69 267 302 196 175 190 191 190
17 5 344 326 286 265 259 259 257 277 302 312 319 320 129 221 155 352 347 12 37 41 101 74 79 116 121 29 2 352 340 326 227 222 231 218 259 230 218 151 200 203 200 196 201
17 6 350 318 283 261 265 270 262 275 302 322 329 315 231 207 286 312 0 190 357 5 57 58 27 101 61 82 18 32 48 356 232 175 330 70 272 259 213 179 225 213 206 198 198
18 9 0 354 329 272 274 285 264 268 280 300 283 64 276 217 238 286 355 220 323 110 14 54 79 92 42 80 12 11 281 273 312 201 132 176 277 237 160 199 240 213 209 202 198
17 10 5 350 351 322 294 284 253 269 264 211 249 28 281 228 226 268 305 24 97 31 46 57 48 72 42 81 238 261 299 264 247 267 224 255 267 278 245 228 239 218 209 199 199
11 9 2 351 350 356 2 138 24 335 94 214 218 249 264 301 276 221 29 100 101 60 158 12 66 221 221 194 166 165 220 248 252 273 264 224 273 286 287 239 248 222 204 206 212
6 6 3 359 15 19 42 79 135 196 310 235 245 270 239 158 305 236 316 164 117 202 136 18 229 203 132 150 163 194 252 258 286 230 239 301 278 280 290 251 229 229 211 206 170
2 2 2 359 2 26 64 80 54 8 174 297 216 226 223 156 252 234 157 148 173 198 193 181 207 143 155 172 191 224 205 221 232 340 269 319 282 296 300 268 251 235 223 198 195
359 358 359 4 93 21 58 33 352 258 55 247 246 244 144 115 275 169 89 162 228 217 189 230 124 170 173 231 161 275 196 182 257 38 249 13 289 305 301 296 258 258 216 210 182
356 354 355 14 350 55 342 336 321 155 358 185 202 158 129 193 8 209 22 69 217 208 126 257 167 191 203 220 167 228 134 182 176 181 10 258 183 267 321 302 269 238 237 206 187
353 351 351 357 3 4 333 317 100 43 259 227 164 211 253 183 235 104 121 64 121 141 227 241 240 188 210 158 178 128 91 56 53 92 320 218 166 274 234 267 322 322 229 178 120
350 347 343 336 317 337 336 87 29 151 332 215 225 179 216 222 230 177 188 198 187 164 265 295 221 204 160 138 50 101 61 322 331 353 232 174 176 241 295 325 278 232 81 81 71
345 343 330 311 321 341 344 52 207 236 231 347 149 157 223 170 243 195 202 269 220 123 129 205 310 179 176 202 183 178 171 163 263 231 262 95 244 251 199 35 35 42 66 61 53
341 339 338 322 327 335 75 111 214 210 211 177 59 198 266 238 206 183 215 225 221 178 182 174 266 116 169 150 145 178 188 187 218 83 339 228 292 289 94 40 43 46 56 51 47
337 324 315 357 341 24 81 230 236 215 149 134 193 178 219 213 185 185 207 209 236 192 131 220 290 205 140 105 54 168 171 80 5 257 250 269 267 234 197 161 40 56 69 67 65
351 357 337 341 336 56 201 231 273 247 173 182 217 245 220 206 200 209 228 260 208 170 162 159 161 234 115 199 188 131 227 222 190 170 225 281 253 203 215 162 139 103 88 81 64
7 335 349 341 8 12 215 210 268 261 195 265 223 217 206 200 222 230 226 215 159 151 174 207 173 235 217 238 199 182 205 177 207 232 236 262 265 142 128 137 140 134 119 97 83
328 266 317 188 232 252 282 283 259 233 226 210 241 210 180 199 237 205 220 216 162 165 177 178 239 317 315 19 351 213 203 199 90 82 239 240 257 162 130 100 97 120 119 112 101
292 309 304 53 178 214 277 261 259 248 248 214 245 178 163 234 232 259 233 246 188 198 185 161 202 235 251 250 143 206 217 197 177 218 226 234 259 185 198 171 151 139 121 110 96
204 241 281 282 284 235 232 298 276 288 229 225 273 217 202 239 233 251 245 264 210 223 201 189 249 209 250 262 261 270 259 237 222 229 236 264 255 259 204 171 157 138 121 113 98
292 331 346 308 303 275 200 249 254 263 229 248 249 247 241 247 237 255 213 178 224 186 179 200 259 221 264 259 261 265 259 254 245 247 242 251 263 111 113 112 121 125 125 115 101
351 344 325 274 278 264 262 261 278 315 243 246 251 261 255 243 239 260 257 260 241 225 207 181 205 209 256 259 256 255 251 243 237 232 226 241 258 144 140 136 129 114 102 105 103